Location: Remedello Sotto
(45.2500°N, 10.3667°E)
Time: 11:26:39
(UTC+00:00)

Cosmos 1461 - Pass Details

Date: 03 February 2023
Orbit: 492 x 644 km, 65.0° (Epoch: 20 March)

Event Time Altitude Azimuth Distance (km) Brightness Sun altitude
Rises 17:38:07 0° 207° (SSW) 2,725 7.0 -12.6°
Reaches altitude 10° 17:40:17 10° 205° (SSW) 1,861 6.0 -13.0°
Maximum altitude 17:44:27 70° 122° (ESE) 629 2.9 -13.7°
Enters shadow 17:47:58 16° 41° (NE) 1,618 4.8 -14.3°
